星链-36589(STARLINK-36589)

导读

STARLINK-36589是美国太空探索技术公司星链星座的一员,于2026年2月16日发射。星链项目旨在构建全球卫星互联网星座,为全球偏远地区、海洋等网络覆盖薄弱区域提供高速宽带服务,该卫星入轨后将助力星链系统进一步扩容,提升星座服务覆盖能力与网络稳定性。

Basic Information
目录编号:
67843
目录名称:
STARLINK-36589
国际标识:
2026-033Y
轨道中心:
EARTH
卫星名称:
星链-36589
卫星全名:
星链-36589(STARLINK-36589)
卫星状态:
在轨 (已飞行201 天)
发射日期:
2026-02-16 UTC
国别 :
美国 (US)
星等 :
--
Orbit Information
数据来源 国际轨道数据
星历时间: 2026-09-05T14:54:16+0800
6小时前
查看轨道信息
半长轴: 6861.187km
偏心率: 0.0001105
轨道倾角: 43.002°
近地点辐角 270.194°
升交点赤经 332.563°
平近点角 89.879°
近地点: 482.291km
远地点: 483.809km
周期: 94.267分钟
每日圈数: 15.2758
Detailed Information
固有亮度:
5
最大亮度:
2.5
卫星平台:
Starlink V1.0
覆盖范围:
全球
运营商:
太空探索技术公司
运营商所在国:
美国
制造商(研发单位):
太空探索技术公司
制造商所在国:
美国
使用方式:
暂无
Satellite Introduction
Starlink 计划是 SpaceX 推出的全球卫星互联网项目,通过发射低轨道卫星,为全球尤其是偏远地区提供高速、低延迟的互联网服务。自 2019 年起,Starlink 已部署数千颗卫星,旨在缩小全球数字鸿沟,推动互联网普及。该项目还为军事、航空等行业提供通信支持,带来广泛经济效益。
2D Orbit Map
3D Orbit Map
Orbit Altitude Analysis Chart
Orbit Inclination Analysis Chart
Orbit Comprehensive Analysis Chart
View Comprehensive Chart
Conjunction Data List
Event ID Objects TCA Miss Dist (km) Collision Risk Probability Collision Risk Index (CRI) Action
CDM_260907-114605-629706-784321
2026-09-07T
11:46:09+0000
0.253 km
中距离
4.112246E-4 高风险 0.87
CDM_260902-232905-629706-784321
2026-09-02T
23:29:25+0000
0.541 km
远距离
8.781696E-5 中风险 0.74
CDM_260903-045805-629706-784321
2026-09-03T
04:58:58+0000
1.062 km
极远距离
1.03288E-5 中风险 0.55
CDM_260907-132005-629706-784321
2026-09-07T
13:20:18+0000
1.447 km
极远距离
3.649703E-6 低风险 0.46
CDM_260903-031206-394006-784321
2026-09-03T
03:12:49+0000
1.797 km
极远距离
3.431607E-6 低风险 0.46
CDM_260907-101205-629706-784321
2026-09-07T
10:12:00+0000
1.919 km
极远距离
1.625285E-6 低风险 0.39
CDM_260906-043806-581006-784321
2026-09-06T
04:38:11+0000
2.887 km
极远距离
1.341224E-6 低风险 0.38
CDM_260903-032405-629706-784322
2026-09-03T
03:24:48+0000
2.451 km
极远距离
9.715629E-7 极低风险 0.35
CDM_260903-010305-629706-784321
2026-09-03T
01:03:34+0000
2.686 km
极远距离
8.419158E-7 极低风险 0.34